Year,Month,Day,Hour,Minute,Value (Times are PST for temperature in C)
2014,04,10,00,00,5.00
2014,04,10,00,01,5.10
2014,04,10,00,02,5.10
2014,04,10,00,03,5.10
2014,04,10,00,04,5.20
2014,04,10,00,05,5.20
2014,04,10,00,06,5.20
2014,04,10,00,07,5.20
2014,04,10,00,08,5.20
2014,04,10,00,09,5.20
2014,04,10,00,10,5.20
2014,04,10,00,11,5.20
2014,04,10,00,12,5.20
2014,04,10,00,13,5.20
2014,04,10,00,14,5.20
2014,04,10,00,15,5.20
2014,04,10,00,16,5.20
2014,04,10,00,17,5.20
2014,04,10,00,18,5.30
2014,04,10,00,19,5.30
2014,04,10,00,20,5.30
2014,04,10,00,21,5.30
2014,04,10,00,22,5.30
2014,04,10,00,23,5.30
2014,04,10,00,24,5.30
2014,04,10,00,25,5.30
2014,04,10,00,26,5.30
2014,04,10,00,27,5.30
2014,04,10,00,28,5.30
2014,04,10,00,29,5.30
2014,04,10,00,30,5.30
2014,04,10,00,31,5.30
2014,04,10,00,32,5.30
2014,04,10,00,33,5.30
2014,04,10,00,34,5.30
2014,04,10,00,35,5.30
2014,04,10,00,36,5.40
2014,04,10,00,37,5.40
2014,04,10,00,38,5.40
2014,04,10,00,39,5.40
2014,04,10,00,40,5.40
2014,04,10,00,41,5.40
2014,04,10,00,42,5.40
2014,04,10,00,43,5.40
2014,04,10,00,44,5.30
2014,04,10,00,45,5.30
2014,04,10,00,46,5.30
2014,04,10,00,47,5.30
2014,04,10,00,48,5.30
2014,04,10,00,49,5.30
2014,04,10,00,50,5.40
2014,04,10,00,51,5.40
2014,04,10,00,52,5.40
2014,04,10,00,53,5.50
2014,04,10,00,54,5.50
2014,04,10,00,55,5.50
2014,04,10,00,56,5.60
2014,04,10,00,57,5.60
2014,04,10,00,58,5.60
2014,04,10,00,59,5.60
2014,04,10,01,00,5.60
2014,04,10,01,01,5.60
2014,04,10,01,02,5.70
2014,04,10,01,03,5.70
2014,04,10,01,04,5.70
2014,04,10,01,05,5.70
2014,04,10,01,06,5.70
2014,04,10,01,07,5.70
2014,04,10,01,08,5.70
2014,04,10,01,09,5.70
2014,04,10,01,10,5.70
2014,04,10,01,11,5.70
2014,04,10,01,12,5.70
2014,04,10,01,13,5.70
2014,04,10,01,14,5.70
2014,04,10,01,15,5.70
2014,04,10,01,16,5.70
2014,04,10,01,17,5.70
2014,04,10,01,18,5.70
2014,04,10,01,19,5.70
2014,04,10,01,20,5.70
2014,04,10,01,21,5.70
2014,04,10,01,22,5.80
2014,04,10,01,23,5.80
2014,04,10,01,24,5.80
2014,04,10,01,25,5.80
2014,04,10,01,26,5.90
2014,04,10,01,27,6.00
2014,04,10,01,28,6.00
2014,04,10,01,29,6.10
2014,04,10,01,30,6.10
2014,04,10,01,31,6.20
2014,04,10,01,32,6.20
2014,04,10,01,33,6.20
2014,04,10,01,34,6.20
2014,04,10,01,35,6.30
2014,04,10,01,36,6.30
2014,04,10,01,37,6.30
2014,04,10,01,38,6.40
2014,04,10,01,39,6.40
2014,04,10,01,40,6.40
2014,04,10,01,41,6.50
2014,04,10,01,42,6.50
2014,04,10,01,43,6.50
2014,04,10,01,44,6.50
2014,04,10,01,45,6.50
2014,04,10,01,46,6.50
2014,04,10,01,47,6.50
2014,04,10,01,48,6.40
2014,04,10,01,49,6.40
2014,04,10,01,50,6.40
2014,04,10,01,51,6.40
2014,04,10,01,52,6.40
2014,04,10,01,53,6.40
2014,04,10,01,54,6.40
2014,04,10,01,55,6.40
2014,04,10,01,56,6.40
2014,04,10,01,57,6.40
2014,04,10,01,58,6.40
2014,04,10,01,59,6.40
2014,04,10,02,00,6.30
2014,04,10,02,01,6.30
2014,04,10,02,02,6.30
2014,04,10,02,03,6.30
2014,04,10,02,04,6.30
2014,04,10,02,05,6.30
2014,04,10,02,06,6.30
2014,04,10,02,07,6.20
2014,04,10,02,08,6.20
2014,04,10,02,09,6.20
2014,04,10,02,10,6.10
2014,04,10,02,11,6.10
2014,04,10,02,12,6.10
2014,04,10,02,13,6.10
2014,04,10,02,14,6.10
2014,04,10,02,15,6.00
2014,04,10,02,16,6.00
2014,04,10,02,17,6.00
2014,04,10,02,18,5.90
2014,04,10,02,19,5.90
2014,04,10,02,20,5.90
2014,04,10,02,21,5.80
2014,04,10,02,22,5.80
2014,04,10,02,23,5.80
2014,04,10,02,24,5.70
2014,04,10,02,25,5.70
2014,04,10,02,26,5.70
2014,04,10,02,27,5.70
2014,04,10,02,28,5.60
2014,04,10,02,29,5.60
2014,04,10,02,30,5.60
2014,04,10,02,31,5.60
2014,04,10,02,32,5.50
2014,04,10,02,33,5.50
2014,04,10,02,34,5.50
2014,04,10,02,35,5.40
2014,04,10,02,36,5.40
2014,04,10,02,37,5.40
2014,04,10,02,38,5.40
2014,04,10,02,39,5.40
2014,04,10,02,40,5.40
2014,04,10,02,41,5.40
2014,04,10,02,42,5.40
2014,04,10,02,43,5.40
2014,04,10,02,44,5.40
2014,04,10,02,45,5.40
2014,04,10,02,46,5.40
2014,04,10,02,47,5.40
2014,04,10,02,48,5.40
2014,04,10,02,49,5.40
2014,04,10,02,50,5.40
2014,04,10,02,51,5.40
2014,04,10,02,52,5.40
2014,04,10,02,53,5.40
2014,04,10,02,54,5.40
2014,04,10,02,55,5.40
2014,04,10,02,56,5.40
2014,04,10,02,57,5.40
2014,04,10,02,58,5.40
2014,04,10,02,59,5.40
2014,04,10,03,00,5.40
2014,04,10,03,01,5.40
2014,04,10,03,02,5.40
2014,04,10,03,03,5.40
2014,04,10,03,04,5.40
2014,04,10,03,05,5.40
2014,04,10,03,06,5.40
2014,04,10,03,07,5.40
2014,04,10,03,08,5.40
2014,04,10,03,09,5.40
2014,04,10,03,10,5.40
2014,04,10,03,11,5.40
2014,04,10,03,12,5.30
2014,04,10,03,13,5.30
2014,04,10,03,14,5.30
2014,04,10,03,15,5.30
2014,04,10,03,16,5.30
2014,04,10,03,17,5.30
2014,04,10,03,18,5.30
2014,04,10,03,19,5.30
2014,04,10,03,20,5.30
2014,04,10,03,21,5.30
2014,04,10,03,22,5.30
2014,04,10,03,23,5.30
2014,04,10,03,24,5.30
2014,04,10,03,25,5.30
2014,04,10,03,26,5.30
2014,04,10,03,27,5.30
2014,04,10,03,28,5.30
2014,04,10,03,29,5.30
2014,04,10,03,30,5.30
2014,04,10,03,31,5.30
2014,04,10,03,32,5.30
2014,04,10,03,33,5.30
2014,04,10,03,34,5.30
2014,04,10,03,35,5.30
2014,04,10,03,36,5.30
2014,04,10,03,37,5.20
2014,04,10,03,38,5.20
2014,04,10,03,39,5.20
2014,04,10,03,40,5.20
2014,04,10,03,41,5.20
2014,04,10,03,42,5.20
2014,04,10,03,43,5.20
2014,04,10,03,44,5.20
2014,04,10,03,45,5.10
2014,04,10,03,46,5.10
2014,04,10,03,47,5.10
2014,04,10,03,48,5.10
2014,04,10,03,49,5.10
2014,04,10,03,50,5.10
2014,04,10,03,51,5.10
2014,04,10,03,52,5.10
2014,04,10,03,53,5.10
2014,04,10,03,54,5.10
2014,04,10,03,55,5.10
2014,04,10,03,56,5.10
2014,04,10,03,57,5.10
2014,04,10,03,58,5.10
2014,04,10,03,59,5.10
2014,04,10,04,00,5.10
2014,04,10,04,01,5.10
2014,04,10,04,02,5.10
2014,04,10,04,03,5.10
2014,04,10,04,04,5.10
2014,04,10,04,05,5.10
2014,04,10,04,06,5.10
2014,04,10,04,07,5.10
2014,04,10,04,08,5.10
2014,04,10,04,09,5.10
2014,04,10,04,10,5.10
2014,04,10,04,11,5.10
2014,04,10,04,12,5.10
2014,04,10,04,13,5.10
2014,04,10,04,14,5.10
2014,04,10,04,15,5.10
2014,04,10,04,16,5.10
2014,04,10,04,17,5.10
2014,04,10,04,18,5.00
2014,04,10,04,19,5.00
2014,04,10,04,20,5.00
2014,04,10,04,21,5.10
2014,04,10,04,22,5.10
2014,04,10,04,23,5.10
2014,04,10,04,24,5.10
2014,04,10,04,25,5.10
2014,04,10,04,26,5.10
2014,04,10,04,27,5.10
2014,04,10,04,28,5.10
2014,04,10,04,29,5.10
2014,04,10,04,30,5.00
2014,04,10,04,31,5.00
2014,04,10,04,32,5.00
2014,04,10,04,33,5.00
2014,04,10,04,34,5.00
2014,04,10,04,35,5.00
2014,04,10,04,36,5.00
2014,04,10,04,37,5.00
2014,04,10,04,38,5.00
2014,04,10,04,39,5.00
2014,04,10,04,40,5.00
2014,04,10,04,41,5.00
2014,04,10,04,42,4.90
2014,04,10,04,43,4.90
2014,04,10,04,44,4.90
2014,04,10,04,45,4.90
2014,04,10,04,46,4.90
2014,04,10,04,47,4.80
2014,04,10,04,48,4.80
2014,04,10,04,49,4.80
2014,04,10,04,50,4.80
2014,04,10,04,51,4.80
2014,04,10,04,52,4.80
2014,04,10,04,53,4.80
2014,04,10,04,54,4.80
2014,04,10,04,55,4.90
2014,04,10,04,56,4.90
2014,04,10,04,57,4.90
2014,04,10,04,58,4.80
2014,04,10,04,59,4.80
2014,04,10,05,00,4.80
2014,04,10,05,01,4.80
2014,04,10,05,02,4.80
2014,04,10,05,03,4.80
2014,04,10,05,04,4.80
2014,04,10,05,05,4.70
2014,04,10,05,06,4.70
2014,04,10,05,07,4.70
2014,04,10,05,08,4.70
2014,04,10,05,09,4.70
2014,04,10,05,10,4.70
2014,04,10,05,11,4.70
2014,04,10,05,12,4.70
2014,04,10,05,13,4.70
2014,04,10,05,14,4.70
2014,04,10,05,15,4.70
2014,04,10,05,16,4.70
2014,04,10,05,17,4.70
2014,04,10,05,18,4.70
2014,04,10,05,19,4.70
2014,04,10,05,20,4.70
2014,04,10,05,21,4.70
2014,04,10,05,22,4.70
2014,04,10,05,23,4.70
2014,04,10,05,24,4.70
2014,04,10,05,25,4.80
2014,04,10,05,26,4.80
2014,04,10,05,27,4.80
2014,04,10,05,28,4.80
2014,04,10,05,29,4.80
2014,04,10,05,30,4.80
2014,04,10,05,31,4.80
2014,04,10,05,32,4.80
2014,04,10,05,33,4.80
2014,04,10,05,34,4.80
2014,04,10,05,35,4.80
2014,04,10,05,36,4.80
2014,04,10,05,37,4.80
2014,04,10,05,38,4.80
2014,04,10,05,39,4.80
2014,04,10,05,40,4.80
2014,04,10,05,41,4.80
2014,04,10,05,42,4.80
2014,04,10,05,43,4.80
2014,04,10,05,44,4.80
2014,04,10,05,45,4.80
2014,04,10,05,46,4.80
2014,04,10,05,47,4.80
2014,04,10,05,48,4.80
2014,04,10,05,49,4.80
2014,04,10,05,50,4.80
2014,04,10,05,51,4.80
2014,04,10,05,52,4.80
2014,04,10,05,53,4.80
2014,04,10,05,54,4.80
2014,04,10,05,55,4.80
2014,04,10,05,56,4.80
2014,04,10,05,57,4.90
2014,04,10,05,58,4.90
2014,04,10,05,59,4.90
2014,04,10,06,00,4.90
2014,04,10,06,01,4.90
2014,04,10,06,02,4.90
2014,04,10,06,03,4.90
2014,04,10,06,04,4.90
2014,04,10,06,05,4.90
2014,04,10,06,06,4.90
2014,04,10,06,07,4.90
2014,04,10,06,08,4.90
2014,04,10,06,09,4.90
2014,04,10,06,10,4.90
2014,04,10,06,11,4.90
2014,04,10,06,12,4.90
2014,04,10,06,13,4.90
2014,04,10,06,14,4.90
2014,04,10,06,15,4.90
2014,04,10,06,16,4.90
2014,04,10,06,17,4.90
2014,04,10,06,18,4.90
2014,04,10,06,19,4.90
2014,04,10,06,20,4.90
2014,04,10,06,21,4.90
2014,04,10,06,22,4.90
2014,04,10,06,23,4.80
2014,04,10,06,24,4.80
2014,04,10,06,25,4.80
2014,04,10,06,26,4.80
2014,04,10,06,27,4.80
2014,04,10,06,28,4.80
2014,04,10,06,29,4.80
2014,04,10,06,30,4.70
2014,04,10,06,31,4.70
2014,04,10,06,32,4.70
2014,04,10,06,33,4.70
2014,04,10,06,34,4.70
2014,04,10,06,35,4.60
2014,04,10,06,36,4.60
2014,04,10,06,37,4.60
2014,04,10,06,38,4.60
2014,04,10,06,39,4.60
2014,04,10,06,40,4.60
2014,04,10,06,41,4.60
2014,04,10,06,42,4.60
2014,04,10,06,43,4.60
2014,04,10,06,44,4.50
2014,04,10,06,45,4.50
2014,04,10,06,46,4.50
2014,04,10,06,47,4.50
2014,04,10,06,48,4.50
2014,04,10,06,49,4.50
2014,04,10,06,50,4.50
2014,04,10,06,51,4.50
2014,04,10,06,52,4.50
2014,04,10,06,53,4.50
2014,04,10,06,54,4.50
2014,04,10,06,55,4.50
2014,04,10,06,56,4.50
2014,04,10,06,57,4.50
2014,04,10,06,58,4.50
2014,04,10,06,59,4.50
2014,04,10,07,00,4.50
2014,04,10,07,01,4.60
2014,04,10,07,02,4.60
2014,04,10,07,03,4.60
2014,04,10,07,04,4.60
2014,04,10,07,05,4.60
2014,04,10,07,06,4.60
2014,04,10,07,07,4.60
2014,04,10,07,08,4.60
2014,04,10,07,09,4.70
2014,04,10,07,10,4.70
2014,04,10,07,11,4.70
2014,04,10,07,12,4.70
2014,04,10,07,13,4.70
2014,04,10,07,14,4.80
2014,04,10,07,15,4.80
2014,04,10,07,16,4.80
2014,04,10,07,17,4.80
2014,04,10,07,18,4.80
2014,04,10,07,19,4.90
2014,04,10,07,20,4.90
2014,04,10,07,21,4.90
2014,04,10,07,22,5.00
2014,04,10,07,23,5.00
2014,04,10,07,24,5.00
2014,04,10,07,25,5.10
2014,04,10,07,26,5.10
2014,04,10,07,27,5.10
2014,04,10,07,28,5.10
2014,04,10,07,29,5.20
2014,04,10,07,30,5.20
2014,04,10,07,31,5.20
2014,04,10,07,32,5.20
2014,04,10,07,33,5.20
2014,04,10,07,34,5.20
2014,04,10,07,35,5.30
2014,04,10,07,36,5.30
2014,04,10,07,37,5.30
2014,04,10,07,38,5.30
2014,04,10,07,39,5.30
2014,04,10,07,40,5.30
2014,04,10,07,41,5.30
2014,04,10,07,42,5.30
2014,04,10,07,43,5.30
2014,04,10,07,44,5.30
2014,04,10,07,45,5.40
2014,04,10,07,46,5.40
2014,04,10,07,47,5.40
2014,04,10,07,48,5.40
2014,04,10,07,49,5.40
2014,04,10,07,50,5.50
2014,04,10,07,51,5.50
2014,04,10,07,52,5.50
2014,04,10,07,53,5.60
2014,04,10,07,54,5.60
2014,04,10,07,55,5.60
2014,04,10,07,56,5.60
2014,04,10,07,57,5.60
2014,04,10,07,58,5.70
2014,04,10,07,59,5.70
2014,04,10,08,00,5.70
2014,04,10,08,01,5.70
2014,04,10,08,02,5.70
2014,04,10,08,03,5.80
2014,04,10,08,04,5.80
2014,04,10,08,05,5.80
2014,04,10,08,06,5.80
2014,04,10,08,07,5.80
2014,04,10,08,08,5.80
2014,04,10,08,09,5.80
2014,04,10,08,10,5.80
2014,04,10,08,11,5.90
2014,04,10,08,12,5.90
2014,04,10,08,13,5.90
2014,04,10,08,14,5.90
2014,04,10,08,15,5.90
2014,04,10,08,16,5.90
2014,04,10,08,17,5.90
2014,04,10,08,18,5.90
2014,04,10,08,19,5.90
2014,04,10,08,20,5.90
2014,04,10,08,21,5.90
2014,04,10,08,22,6.00
2014,04,10,08,23,6.00
2014,04,10,08,24,6.00
2014,04,10,08,25,6.00
2014,04,10,08,26,6.00
2014,04,10,08,27,6.00
2014,04,10,08,28,6.10
2014,04,10,08,29,6.10
2014,04,10,08,30,6.10
2014,04,10,08,31,6.10
2014,04,10,08,32,6.10
2014,04,10,08,33,6.10
2014,04,10,08,34,6.10
2014,04,10,08,35,6.10
2014,04,10,08,36,6.20
2014,04,10,08,37,6.20
2014,04,10,08,38,6.20
2014,04,10,08,39,6.20
2014,04,10,08,40,6.20
2014,04,10,08,41,6.20
2014,04,10,08,42,6.30
2014,04,10,08,43,6.30
2014,04,10,08,44,6.30
2014,04,10,08,45,6.30
2014,04,10,08,46,6.40
2014,04,10,08,47,6.40
2014,04,10,08,48,6.40
2014,04,10,08,49,6.50
2014,04,10,08,50,6.50
2014,04,10,08,51,6.60
2014,04,10,08,52,6.60
2014,04,10,08,53,6.60
2014,04,10,08,54,6.70
2014,04,10,08,55,6.70
2014,04,10,08,56,6.70
2014,04,10,08,57,6.70
2014,04,10,08,58,6.80
2014,04,10,08,59,6.80
2014,04,10,09,00,6.80
2014,04,10,09,01,6.80
2014,04,10,09,02,6.90
2014,04,10,09,03,6.90
2014,04,10,09,04,6.90
2014,04,10,09,05,7.00
2014,04,10,09,06,7.00
2014,04,10,09,07,7.10
2014,04,10,09,08,7.10
2014,04,10,09,09,7.10
2014,04,10,09,10,7.20
2014,04,10,09,11,7.20
2014,04,10,09,12,7.20
2014,04,10,09,13,7.30
2014,04,10,09,14,7.30
2014,04,10,09,15,7.30
2014,04,10,09,16,7.30
2014,04,10,09,17,7.40
2014,04,10,09,18,7.40
2014,04,10,09,19,7.40
2014,04,10,09,20,7.40
2014,04,10,09,21,7.50
2014,04,10,09,22,7.50
2014,04,10,09,23,7.50
2014,04,10,09,24,7.60
2014,04,10,09,25,7.60
2014,04,10,09,26,7.70
2014,04,10,09,27,7.70
2014,04,10,09,28,7.80
2014,04,10,09,29,7.80
2014,04,10,09,30,7.80
2014,04,10,09,31,7.90
2014,04,10,09,32,8.00
2014,04,10,09,33,8.00
2014,04,10,09,34,8.10
2014,04,10,09,35,8.20
2014,04,10,09,36,8.20
2014,04,10,09,37,8.20
2014,04,10,09,38,8.30
2014,04,10,09,39,8.30
2014,04,10,09,40,8.30
2014,04,10,09,41,8.30
2014,04,10,09,42,8.30
2014,04,10,09,43,8.30
2014,04,10,09,44,8.30
2014,04,10,09,45,8.30
2014,04,10,09,46,8.20
2014,04,10,09,47,8.10
2014,04,10,09,48,8.10
2014,04,10,09,49,8.10
2014,04,10,09,50,8.00
2014,04,10,09,51,8.00
2014,04,10,09,52,8.00
2014,04,10,09,53,8.00
2014,04,10,09,54,8.00
2014,04,10,09,55,8.00
2014,04,10,09,56,8.00
2014,04,10,09,57,8.10
2014,04,10,09,58,8.10
2014,04,10,09,59,8.10
2014,04,10,10,00,8.10
2014,04,10,10,01,8.20
2014,04,10,10,02,8.20
2014,04,10,10,03,8.20
2014,04,10,10,04,8.30
2014,04,10,10,05,8.30
2014,04,10,10,06,8.30
2014,04,10,10,07,8.40
2014,04,10,10,08,8.40
2014,04,10,10,09,8.40
2014,04,10,10,10,8.40
2014,04,10,10,11,8.50
2014,04,10,10,12,8.50
2014,04,10,10,13,8.50
2014,04,10,10,14,8.50
2014,04,10,10,15,8.60
2014,04,10,10,16,8.60
2014,04,10,10,17,8.60
2014,04,10,10,18,8.60
2014,04,10,10,19,8.70
2014,04,10,10,20,8.70
2014,04,10,10,21,8.80
2014,04,10,10,22,8.80
2014,04,10,10,23,8.80
2014,04,10,10,24,8.90
2014,04,10,10,25,9.00
2014,04,10,10,26,9.00
2014,04,10,10,27,9.00
2014,04,10,10,28,9.10
2014,04,10,10,29,9.10
2014,04,10,10,30,9.10
2014,04,10,10,31,9.00
2014,04,10,10,32,9.00
2014,04,10,10,33,9.00
2014,04,10,10,34,8.90
2014,04,10,10,35,8.90
2014,04,10,10,36,8.90
2014,04,10,10,37,9.00
2014,04,10,10,38,9.00
2014,04,10,10,39,9.00
2014,04,10,10,40,9.00
2014,04,10,10,41,9.00
2014,04,10,10,42,9.00
2014,04,10,10,43,9.10
2014,04,10,10,44,9.10
2014,04,10,10,45,9.10
2014,04,10,10,46,9.10
2014,04,10,10,47,9.10
2014,04,10,10,48,9.20
2014,04,10,10,49,9.20
2014,04,10,10,50,9.20
2014,04,10,10,51,9.20
2014,04,10,10,52,9.20
2014,04,10,10,53,9.20
2014,04,10,10,54,9.30
2014,04,10,10,55,9.30
2014,04,10,10,56,9.30
2014,04,10,10,57,9.30
2014,04,10,10,58,9.40
2014,04,10,10,59,9.40
2014,04,10,11,00,9.40
2014,04,10,11,01,9.50
2014,04,10,11,02,9.50
2014,04,10,11,03,9.60
2014,04,10,11,04,9.60
2014,04,10,11,05,9.60
2014,04,10,11,06,9.70
2014,04,10,11,07,9.70
2014,04,10,11,08,9.70
2014,04,10,11,09,9.80
2014,04,10,11,10,9.90
2014,04,10,11,11,10.00
2014,04,10,11,12,10.10
2014,04,10,11,13,10.20
2014,04,10,11,14,10.30
2014,04,10,11,15,10.40
2014,04,10,11,16,10.50
2014,04,10,11,17,10.60
2014,04,10,11,18,10.70
2014,04,10,11,19,10.80
2014,04,10,11,20,10.90
2014,04,10,11,21,10.90
2014,04,10,11,22,10.90
2014,04,10,11,23,10.90
2014,04,10,11,24,10.90
2014,04,10,11,25,10.90
2014,04,10,11,26,10.90
2014,04,10,11,27,10.80
2014,04,10,11,28,10.90
2014,04,10,11,29,10.90
2014,04,10,11,30,11.00
2014,04,10,11,31,11.10
2014,04,10,11,32,11.20
2014,04,10,11,33,11.20
2014,04,10,11,34,11.20
2014,04,10,11,35,11.20
2014,04,10,11,36,11.20
2014,04,10,11,37,11.30
2014,04,10,11,38,11.20
2014,04,10,11,39,11.20
2014,04,10,11,40,11.10
2014,04,10,11,41,10.90
2014,04,10,11,42,10.90
2014,04,10,11,43,10.80
2014,04,10,11,44,10.90
2014,04,10,11,45,10.80
2014,04,10,11,46,10.80
2014,04,10,11,47,10.80
2014,04,10,11,48,10.80
2014,04,10,11,49,10.80
2014,04,10,11,50,10.90
2014,04,10,11,51,11.00
2014,04,10,11,52,11.10
2014,04,10,11,53,11.20
2014,04,10,11,54,11.30
2014,04,10,11,55,11.40
2014,04,10,11,56,11.40
2014,04,10,11,57,11.40
2014,04,10,11,58,11.40
2014,04,10,11,59,11.40
2014,04,10,12,00,11.50
2014,04,10,12,01,11.60
2014,04,10,12,02,11.60
2014,04,10,12,03,11.60
2014,04,10,12,04,11.60
2014,04,10,12,05,11.60
2014,04,10,12,06,11.70
2014,04,10,12,07,11.70
2014,04,10,12,08,11.60
2014,04,10,12,09,11.50
2014,04,10,12,10,11.50
2014,04,10,12,11,11.50
2014,04,10,12,12,11.50
2014,04,10,12,13,11.50
2014,04,10,12,14,11.50
2014,04,10,12,15,11.50
2014,04,10,12,16,11.40
2014,04,10,12,17,11.40
2014,04,10,12,18,11.40
2014,04,10,12,19,11.40
2014,04,10,12,20,11.40
2014,04,10,12,21,11.40
2014,04,10,12,22,11.40
2014,04,10,12,23,11.40
2014,04,10,12,24,11.40
2014,04,10,12,25,11.50
2014,04,10,12,26,11.50
2014,04,10,12,27,11.60
2014,04,10,12,28,11.60
2014,04,10,12,29,11.60
2014,04,10,12,30,11.60
2014,04,10,12,31,11.60
2014,04,10,12,32,11.60
2014,04,10,12,33,11.60
2014,04,10,12,34,11.70
2014,04,10,12,35,11.70
2014,04,10,12,36,11.60
2014,04,10,12,37,11.40
2014,04,10,12,38,11.30
2014,04,10,12,39,11.30
2014,04,10,12,40,11.20
2014,04,10,12,41,11.10
2014,04,10,12,42,11.10
2014,04,10,12,43,11.10
2014,04,10,12,44,11.00
2014,04,10,12,45,11.00
2014,04,10,12,46,11.00
2014,04,10,12,47,11.00
2014,04,10,12,48,11.00
2014,04,10,12,49,11.00
2014,04,10,12,50,11.00
2014,04,10,12,51,11.00
2014,04,10,12,52,11.00
2014,04,10,12,53,11.00
2014,04,10,12,54,11.00
2014,04,10,12,55,10.90
2014,04,10,12,56,10.90
2014,04,10,12,57,10.90
2014,04,10,12,58,10.90
2014,04,10,12,59,10.90
2014,04,10,13,00,10.90
2014,04,10,13,01,10.80
2014,04,10,13,02,10.70
2014,04,10,13,03,10.70
2014,04,10,13,04,10.70
2014,04,10,13,05,10.70
2014,04,10,13,06,10.70
2014,04,10,13,07,10.80
2014,04,10,13,08,10.80
2014,04,10,13,09,10.80
2014,04,10,13,10,10.80
2014,04,10,13,11,10.90
2014,04,10,13,12,10.90
2014,04,10,13,13,10.90
2014,04,10,13,14,10.90
2014,04,10,13,15,10.90
2014,04,10,13,16,10.90
2014,04,10,13,17,10.90
2014,04,10,13,18,10.90
2014,04,10,13,19,10.80
2014,04,10,13,20,10.80
2014,04,10,13,21,10.90
2014,04,10,13,22,10.90
2014,04,10,13,23,10.90
2014,04,10,13,24,10.90
2014,04,10,13,25,10.90
2014,04,10,13,26,10.90
2014,04,10,13,27,11.00
2014,04,10,13,28,11.00
2014,04,10,13,29,11.00
2014,04,10,13,30,11.00
2014,04,10,13,31,10.90
2014,04,10,13,32,10.90
2014,04,10,13,33,10.80
2014,04,10,13,34,10.80
2014,04,10,13,35,10.80
2014,04,10,13,36,10.90
2014,04,10,13,37,10.90
2014,04,10,13,38,11.00
2014,04,10,13,39,11.10
2014,04,10,13,40,11.10
2014,04,10,13,41,11.20
2014,04,10,13,42,11.20
2014,04,10,13,43,11.20
2014,04,10,13,44,11.30
2014,04,10,13,45,11.30
2014,04,10,13,46,11.30
2014,04,10,13,47,11.40
2014,04,10,13,48,11.40
2014,04,10,13,49,11.40
2014,04,10,13,50,11.40
2014,04,10,13,51,11.50
2014,04,10,13,52,11.40
2014,04,10,13,53,11.40
2014,04,10,13,54,11.40
2014,04,10,13,55,11.40
2014,04,10,13,56,11.40
2014,04,10,13,57,11.40
2014,04,10,13,58,11.40
2014,04,10,13,59,11.30
2014,04,10,14,00,11.30
2014,04,10,14,01,11.20
2014,04,10,14,02,11.20
2014,04,10,14,03,11.20
2014,04,10,14,04,11.20
2014,04,10,14,05,11.20
2014,04,10,14,06,11.20
2014,04,10,14,07,11.20
2014,04,10,14,08,11.20
2014,04,10,14,09,11.10
2014,04,10,14,10,11.10
2014,04,10,14,11,11.10
2014,04,10,14,12,11.10
2014,04,10,14,13,11.20
2014,04,10,14,14,11.20
2014,04,10,14,15,11.20
2014,04,10,14,16,11.20
2014,04,10,14,17,11.20
2014,04,10,14,18,11.20
2014,04,10,14,19,11.20
2014,04,10,14,20,11.30
2014,04,10,14,21,11.30
2014,04,10,14,22,11.30
2014,04,10,14,23,11.30
2014,04,10,14,24,11.30
2014,04,10,14,25,11.20
2014,04,10,14,26,11.20
2014,04,10,14,27,11.20
2014,04,10,14,28,11.20
2014,04,10,14,29,11.20
2014,04,10,14,30,11.20
2014,04,10,14,31,11.20
2014,04,10,14,32,11.30
2014,04,10,14,33,11.30
2014,04,10,14,34,11.30
2014,04,10,14,35,11.30
2014,04,10,14,36,11.30
2014,04,10,14,37,11.30
2014,04,10,14,38,11.30
2014,04,10,14,39,11.30
2014,04,10,14,40,11.20
2014,04,10,14,41,11.10
2014,04,10,14,42,11.00
2014,04,10,14,43,10.90
2014,04,10,14,44,10.80
2014,04,10,14,45,10.70
2014,04,10,14,46,10.70
2014,04,10,14,47,10.70
2014,04,10,14,48,10.70
2014,04,10,14,49,10.70
2014,04,10,14,50,10.70
2014,04,10,14,51,10.70
2014,04,10,14,52,10.70
2014,04,10,14,53,10.70
2014,04,10,14,54,10.70
2014,04,10,14,55,10.70
2014,04,10,14,56,10.60
2014,04,10,14,57,10.60
2014,04,10,14,58,10.60
2014,04,10,14,59,10.60
2014,04,10,15,00,10.60
2014,04,10,15,01,10.60
2014,04,10,15,02,10.70
2014,04,10,15,03,10.70
2014,04,10,15,04,10.60
2014,04,10,15,05,10.50
2014,04,10,15,06,10.50
2014,04,10,15,07,10.50
2014,04,10,15,08,10.40
2014,04,10,15,09,10.40
2014,04,10,15,10,10.50
2014,04,10,15,11,10.50
2014,04,10,15,12,10.50
2014,04,10,15,13,10.50
2014,04,10,15,14,10.50
2014,04,10,15,15,10.40
2014,04,10,15,16,10.40
2014,04,10,15,17,10.40
2014,04,10,15,18,10.40
2014,04,10,15,19,10.40
2014,04,10,15,20,10.40
2014,04,10,15,21,10.40
2014,04,10,15,22,10.40
2014,04,10,15,23,10.40
2014,04,10,15,24,10.40
2014,04,10,15,25,10.40
2014,04,10,15,26,10.40
2014,04,10,15,27,10.40
2014,04,10,15,28,10.30
2014,04,10,15,29,10.30
2014,04,10,15,30,10.30
2014,04,10,15,31,10.30
2014,04,10,15,32,10.30
2014,04,10,15,33,10.30
2014,04,10,15,34,10.40
2014,04,10,15,35,10.30
2014,04,10,15,36,10.30
2014,04,10,15,37,10.30
2014,04,10,15,38,10.20
2014,04,10,15,39,10.20
2014,04,10,15,40,10.20
2014,04,10,15,41,10.10
2014,04,10,15,42,10.10
2014,04,10,15,43,10.10
2014,04,10,15,44,10.10
2014,04,10,15,45,10.10
2014,04,10,15,46,10.00
2014,04,10,15,47,10.00
2014,04,10,15,48,10.00
2014,04,10,15,49,10.00
2014,04,10,15,50,9.90
2014,04,10,15,51,9.90
2014,04,10,15,52,9.90
2014,04,10,15,53,9.90
2014,04,10,15,54,9.90
2014,04,10,15,55,9.90
2014,04,10,15,56,9.90
2014,04,10,15,57,9.90
2014,04,10,15,58,9.90
2014,04,10,15,59,9.90
2014,04,10,16,00,9.90
2014,04,10,16,01,9.90
2014,04,10,16,02,9.90
2014,04,10,16,03,9.90
2014,04,10,16,04,9.90
2014,04,10,16,05,9.90
2014,04,10,16,06,9.90
2014,04,10,16,07,9.90
2014,04,10,16,08,9.90
2014,04,10,16,09,10.00
2014,04,10,16,10,9.90
2014,04,10,16,11,9.90
2014,04,10,16,12,9.90
2014,04,10,16,13,9.90
2014,04,10,16,14,9.90
2014,04,10,16,15,10.00
2014,04,10,16,16,10.00
2014,04,10,16,17,10.00
2014,04,10,16,18,10.00
2014,04,10,16,19,10.10
2014,04,10,16,20,10.10
2014,04,10,16,21,10.10
2014,04,10,16,22,10.10
2014,04,10,16,23,10.10
2014,04,10,16,24,10.10
2014,04,10,16,25,10.00
2014,04,10,16,26,10.00
2014,04,10,16,27,10.00
2014,04,10,16,28,10.00
2014,04,10,16,29,10.00
2014,04,10,16,30,10.00
2014,04,10,16,31,10.00
2014,04,10,16,32,10.00
2014,04,10,16,33,10.00
2014,04,10,16,34,10.00
2014,04,10,16,35,9.90
2014,04,10,16,36,9.90
2014,04,10,16,37,9.90
2014,04,10,16,38,9.90
2014,04,10,16,39,9.90
2014,04,10,16,40,9.90
2014,04,10,16,41,9.90
2014,04,10,16,42,9.80
2014,04,10,16,43,9.80
2014,04,10,16,44,9.90
2014,04,10,16,45,9.90
2014,04,10,16,46,9.90
2014,04,10,16,47,10.00
2014,04,10,16,48,10.00
2014,04,10,16,49,10.00
2014,04,10,16,50,10.10
2014,04,10,16,51,10.10
2014,04,10,16,52,10.10
2014,04,10,16,53,10.10
2014,04,10,16,54,10.10
2014,04,10,16,55,10.20
2014,04,10,16,56,10.20
2014,04,10,16,57,10.20
2014,04,10,16,58,10.20
2014,04,10,16,59,10.20
2014,04,10,17,00,10.20
2014,04,10,17,01,10.20
2014,04,10,17,02,10.20
2014,04,10,17,03,10.10
2014,04,10,17,04,10.10
2014,04,10,17,05,10.10
2014,04,10,17,06,10.10
2014,04,10,17,07,10.10
2014,04,10,17,08,10.10
2014,04,10,17,09,10.10
2014,04,10,17,10,10.10
2014,04,10,17,11,10.10
2014,04,10,17,12,10.10
2014,04,10,17,13,10.10
2014,04,10,17,14,10.10
2014,04,10,17,15,10.10
2014,04,10,17,16,10.10
2014,04,10,17,17,10.00
2014,04,10,17,18,10.00
2014,04,10,17,19,10.00
2014,04,10,17,20,10.00
2014,04,10,17,21,9.90
2014,04,10,17,22,9.90
2014,04,10,17,23,9.90
2014,04,10,17,24,9.90
2014,04,10,17,25,10.00
2014,04,10,17,26,10.00
2014,04,10,17,27,10.00
2014,04,10,17,28,10.00
2014,04,10,17,29,10.00
2014,04,10,17,30,10.00
2014,04,10,17,31,10.10
2014,04,10,17,32,10.10
2014,04,10,17,33,10.10
2014,04,10,17,34,10.10
2014,04,10,17,35,10.20
2014,04,10,17,36,10.20
2014,04,10,17,37,10.20
2014,04,10,17,38,10.20
2014,04,10,17,39,10.30
2014,04,10,17,40,10.30
2014,04,10,17,41,10.30
2014,04,10,17,42,10.30
2014,04,10,17,43,10.30
2014,04,10,17,44,10.30
2014,04,10,17,45,10.30
2014,04,10,17,46,10.30
2014,04,10,17,47,10.40
2014,04,10,17,48,10.40
2014,04,10,17,49,10.30
2014,04,10,17,50,10.30